Regional Weather Roundup
Issued by NWS

Home | Current Version | Previous Version | Graphics & Text | Print | Product List | Glossary On
Versions: 1 2 3 4 5 6 7 8 9 10 11 12 13 14 15 16 17 18 19 20 21 22 23 24 25 26 27
000
ASUS45 KTFX 282310
RWRMT
MONTANA REGIONAL WEATHER ROUNDUP
NATIONAL WEATHER SERVICE GREAT FALLS MT
500 PM MDT THU JUL 28 2016

NOTE: "FAIR" INDICATES FEW OR NO CLOUDS BELOW 12000 FEET WITH NO
SIGNIFICANT WEATHER AND/OR OBSTRUCTIONS TO VISIBILITY.

MTZ001>007-043-290000-
WEST OF THE DIVIDE

CITY           SKY/WX    TMP DP  RH WIND       PRES   REMARKS
KALISPELL      PTSUNNY   87  52  29 E12       30.06F
MISSOULA       SUNNY     90  46  21 NE9       30.06F
BUTTE          MOSUNNY   83  36  18 NW8       30.19F
MULLAN PASS    SUNNY     76  44  32 VRB7      30.28F
ANACONDA         N/A     82  46  28 N9        30.15F
DEER LODGE       N/A     82  43  24 NW3       30.16F
EUREKA           N/A     84  48  28 W3        30.06S
HAMILTON         N/A     88  45  22 CALM      30.09F
LIBBY            N/A     91  45  19 NW6       30.04F
RONAN            N/A     87  49  26 E2        30.12F
$$

MTZ008-052>055-290000-
SOUTHWEST MONTANA

CITY           SKY/WX    TMP DP  RH WIND       PRES   REMARKS
BOZEMAN        SUNNY     85  48  27 NW5       30.13F
DILLON         SUNNY     87  40  19 N7        30.15F
W YELLOWSTONE  MOSUNNY   81  28  15 NW3G18    30.26F
ENNIS          SUNNY     84  32  15 S6        30.21F
THREE FORKS      N/A     87  87 100 SE1       30.10F HX 116
$$

MTZ009-010-012-014-046-048-049-054-290000-
EAST SLOPES AND CENTRAL MONTANA

CITY           SKY/WX    TMP DP  RH WIND       PRES   REMARKS
CUT BANK         N/A     82  47  29 N5        30.11S
GREAT FALLS    SUNNY     86  43  22 NE8       30.10F
HELENA         SUNNY     89  46  22 VRB5      30.08F
CHOTEAU          N/A     82  46  28 SE9       30.13F
$$

MTZ011-013-016-021-045-047-050-051-290000-
NORTH CENTRAL MONTANA

CITY           SKY/WX    TMP DP  RH WIND       PRES   REMARKS
HAVRE          SUNNY     83  53  35 NE9       30.08F
N BAR RANCH      N/A     77  48  36 E8        30.20F
CHINOOK          N/A     81  54  39 E10       30.09F
$$

MTZ017>020-022>027-061-062-290000-
NORTHEAST MONTANA

CITY           SKY/WX    TMP DP  RH WIND       PRES   REMARKS
GLASGOW        PTSUNNY   78  54  43 VRB6      30.10F
JORDAN           N/A     78  52  40 VRB3      30.11F
SIDNEY         SUNNY     78  54  43 NE9       30.11F
WOLF POINT     SUNNY     80  53  39 E9        30.11F
PLENTYWOOD       N/A     75  52  43 SE9       30.13F
SCOBEY           N/A     78  47  33 NE3       30.11F
$$

MTZ028>42-056>058-290000-
SOUTHCENTRAL AND SOUTHEAST MONTANA

CITY           SKY/WX    TMP DP  RH WIND       PRES   REMARKS
BAKER          LGT RAIN  67  62  84 VRB3      30.13S
BILLINGS       MOSUNNY   81  51  35 E10       30.13F
LIVINGSTON     SUNNY     83  46  27 E13       30.16S
MILES CITY     MOSUNNY   79  53  40 VRB5      30.10F
EKALAKA          N/A     68  58  70 N3        30.12S
FORSYTH          N/A     79  54  41 NW8       30.11S
LAUREL           N/A     78  52  40 NE3       30.12F
ROUNDUP          N/A     79  50  36 CALM      30.05S
$$

REGIONAL REPORTS...DAKOTAS

CITY           SKY/WX    TMP DP  RH WIND       PRES   REMARKS
WILLISTON      PTSUNNY   76  50  40 E3        30.12F
MINOT          MOSUNNY   80  52  37 NE8       30.11F
DICKINSON      CLOUDY    65  57  75 E6        30.14S
BEACH            N/A     72  61  68 E9        30.17S
CROSBY           N/A     73  52  46 CALM      30.15F
WATFORD CITY     N/A    N/A N/A N/A MISG        N/A
BISMARCK       CLOUDY    73  55  53 N7        30.11S
GRAND FORKS    MOSUNNY   77  57  50 N10       30.08F
FARGO          MOSUNNY   79  60  52 N16       30.05S
BUFFALO SD       N/A     67  62  84 NE8       30.08S
RAPID CITY     CLOUDY    73  54  51 N9        30.11F
$$

REGIONAL REPORTS...WYOMING/IDAHO/WASHINGTON

CITY           SKY/WX    TMP DP  RH WIND       PRES   REMARKS
GILLETTE       MOSUNNY   75  54  47 N8        30.16F
SHERIDAN       MOSUNNY   81  46  29 N7        30.14F
BUFFALO WY     MOSUNNY   77  50  38 N13       30.20F
CODY           SUNNY     77  52  41 NE12G20   30.19F
YELLOWSTONE LA   N/A     77  27  15 W9G20     30.35F
IDAHO FALLS    SUNNY     91  39  16 S6        30.09F
SALMON         SUNNY     93  36  13 NE6       30.02F
BOISE          SUNNY     99  38  12 N15G21    29.98F HX  94
SPOKANE        MOSUNNY   94  44  17 N6        30.03F HX  90
$$

REGIONAL REPORTS...ALBERTA

CITY           SKY/WX    TMP DP  RH WIND       PRES   REMARKS
EDMONTON       MOSUNNY   79  59  50 W7        30.03F
CALGARY        MOSUNNY   75  55  50 E9        30.09F
LETHBRIDGE     MOSUNNY   79  57  47 NE6       30.07F
MEDICINE HAT   MOSUNNY   91  50  24 VRB7      30.05F
WATERTON GATE    N/A     81  50  34 SE7         N/A
MILK RIVER       N/A     82  52  34 N2          N/A
$$

REGIONAL REPORTS...SASKATCHEWAN

CITY           SKY/WX    TMP DP  RH WIND       PRES   REMARKS
SWIFT CURRENT  SUNNY     77  54  44 S7        30.11S
REGINA         MOSUNNY   77  52  41 S8        30.12S
SASKATOON      PTSUNNY   81  55  41 W10G17    30.08S
CYPRESS HILLS    N/A     73  46  38 S5          N/A
VAL MARIE        N/A     77  50  38 S5          N/A
ROCKGLEN         N/A     72  52  49 SW5         N/A
ASSINIBOIA       N/A     75  61  60 SW6         N/A
$$




USA.gov is the U.S. government's official web portal to all federal, state and local government web resources and services.